Probability
0 0 0 0 0 0 0 0 0 0 0 0 0 0 0 0 0 0 0 0 0 0 0 0 0 0 0 0 0 0 0 0 0 0 0 0 0 0
0 0 0 0 0 0 0 0 0 0 0 0 0 0 0 0 0 0 0 0 0 0 0 0 0 0 0 0 0 0 0 0 0 0 0 0 0 0
0 0 0 0 0 0 0 0 0 0 0 0 0 0 0 0 0 0 0 0 0 0 0 0 0 0 0 0 0 0 0 0 0 0 0 0 0 0
0 0 0 0 0 0 0 0 0 0 0 0 0 0 0 0 0 0 0 0 0 0 0 0 0 0 0 0 0 0 0 0 0 0 0 0 0 0
0 0 0 0 0 0 0 0 0 0 0 0 0 0 0 0 0 0 0 0 0 0 0 0 0 0 0 0 0 0 0 0 0 0 0 0 0 0
0 0 0 0 0 0 0 0 0 0 0 0 0 0 0 0 0 0 0 0 0 0 0 0 0 0 0 0 0 0 0 0 0 0 0 0 0 0
0 0 0 0 0 0 0 0 0 0 0 0 0 0 0 0 0 0 0 0 0 0 0 0 0 0 0 0 0 0 0 0 0 0 0 0 0 0
0 0 0 0 0 0 0 0 0 0 0 0 0 0 0 0 0 0 0 0 0 0 0 0 0 0 0 0 0 0 0 0 0 0 0 0 0 0
0 0 0 0 0 0 0 0 0 0 0 0 0 0 0 0 0 0 0 0 0 0 0 0 0 0 0 0 0 0 0 0 0 0 0 0 0 0
0 0 0 0 0 0 0 0 0 0 0 0 0 0 0 0 0 0 0 0 0 0 0 0 0 0 0 0 0 0 0 0 0 0 0 0 0 0
0 0 0 0 0 0 0 0 0 0 0 0 0 0 0 0 0 0 0 0 0 0 0 0 0 0 0 0 0 0 0 0 0 0 0 0 0 0
0 0 0 0 0 0 0 0 0 0 0 0 0 0 0 0 0 0 0 0 0 0 0 0 0 0 0 0 0 0 0 0 0 0 0 0 0 0
0 0 0 0 0 0 0 0 0 0 0 0 0 0 0 0 0 0 0 0 0 0 0 0 0 0 0 0 0 0 0 0 0 0 0 0 0 0
0 0 0 0 0 0 0 0 0 0 0 0 0 0 0 0 0 0 0 0 0 0 0 0 0 0 0 0 0 0 0 0 0 0 0 0 0 0
0 0 0 0 0 0 0 0 0 0 0 0 0 0 0 0 0 0 0 0 0 0 0 0 0 0 0 0 0 0 0 0 0 0 0 0 0 0
0 0 0 0 0 0 0 0 0 0 0 0 0 0 0 0 0 0 0 0 0 0 0 0 0 0 0 0 0 0 0 0 0 0 0 0 0 0
0 0 0 0 0 0 0 0 0 0 0 0 0 0 0 0 0 0 0 0 0 0 0 0 0 0 0 0 0 0 0 0 0 0 0 0 0 0
0 0 0 0 0 0 0 0 0 0 0 0 0 0 0 0 0 0 0 0 0 0 0 0 0 0 0 0 0 0 0 0 0 0 0 0 0 0
0 0 0 0 0 0 0 0 0 0 0 0 0 0 0 0 0 0 0 0 0 0 0 0 0 0 0 0 0 0 0 0 0 0 0 0 0 0
0 0 0 0 0 0 0 0 0 0 0 0 0 0 0 0 0 0 0 0 0 0 0 0 0 0 0 0 0 0 0 0 0 0 0 0 0 0
0 0 0 0 0 0 0 0 0 0 0 0 0 0 0 0 0 0 0 0 0 0 0 0 0 0 0 0 0 0 0 0 0 0 0 0 0 0
0 0 0 0 0 0 0 0 0 0 0 0 0 0 0 0 0 0 0 0 0 0 0 0 0 0 0 0 0 0 0 0 0 0 0 0 0 0
0 0 0 0 0 0 0 0 0 0 0 0 0 0 0 0 0 0 0 0 0 0 0 0 0 0 0 0 0 0 0 0 0 0 0 0 0 0
Height
5657 5651 5646 5640 5635 5629 5623 5618 5613 5609 5606 5599 5592 5586 5583 5580 5578 5576 5575 5574 5575 5576 5576 5578 5581 5584 5587 5591 5595 5599 5604 5608 5613 5618 5623 5630 5638 5647
5643 5637 5631 5625 5619 5612 5606 5600 5594 5588 5585 5580 5573 5568 5563 5561 5559 5557 5557 5557 5557 5558 5559 5561 5564 5568 5572 5576 5580 5585 5589 5594 5599 5604 5610 5616 5624 5633
5628 5622 5616 5609 5603 5595 5588 5582 5575 5569 5565 5562 5556 5551 5547 5544 5543 5541 5541 5541 5541 5542 5544 5547 5550 5554 5558 5562 5567 5571 5576 5581 5586 5591 5597 5604 5612 5621
5614 5607 5600 5593 5586 5578 5571 5564 5558 5552 5548 5546 5541 5537 5533 5531 5529 5528 5528 5528 5528 5529 5531 5534 5538 5542 5546 5550 5555 5559 5564 5568 5574 5580 5586 5593 5601 5608
5599 5591 5584 5576 5569 5562 5555 5549 5544 5539 5535 5532 5529 5525 5522 5519 5518 5517 5517 5517 5517 5519 5521 5524 5528 5532 5536 5540 5544 5548 5553 5558 5563 5569 5575 5581 5589 5597
5583 5575 5567 5560 5554 5547 5542 5536 5532 5528 5524 5520 5517 5514 5512 5510 5509 5508 5508 5509 5510 5511 5514 5516 5520 5523 5527 5531 5534 5538 5542 5547 5552 5557 5564 5570 5578 5586
5569 5560 5553 5546 5540 5535 5531 5526 5522 5518 5514 5511 5508 5506 5504 5503 5502 5502 5502 5503 5504 5506 5508 5511 5514 5517 5519 5522 5525 5529 5532 5537 5541 5547 5553 5559 5566 5574
5555 5547 5540 5534 5529 5525 5520 5516 5513 5509 5506 5504 5502 5500 5499 5498 5498 5498 5499 5500 5501 5503 5504 5506 5508 5510 5512 5514 5516 5519 5522 5526 5530 5535 5541 5548 5555 5563
5542 5535 5529 5524 5519 5515 5512 5508 5505 5503 5501 5499 5498 5497 5496 5496 5496 5496 5497 5498 5499 5500 5501 5503 5504 5504 5505 5506 5507 5509 5512 5515 5519 5524 5530 5536 5544 5552
5531 5525 5520 5515 5511 5508 5505 5502 5500 5498 5497 5496 5495 5495 5495 5495 5495 5496 5496 5497 5498 5499 5499 5499 5499 5499 5499 5498 5498 5499 5500 5503 5506 5511 5518 5525 5533 5541
5522 5517 5512 5508 5505 5502 5500 5498 5497 5496 5496 5495 5495 5495 5495 5496 5496 5496 5497 5497 5498 5498 5497 5496 5495 5494 5492 5492 5491 5490 5491 5492 5495 5500 5507 5515 5523 5532
5515 5511 5507 5504 5501 5499 5498 5497 5496 5496 5496 5496 5497 5497 5497 5497 5498 5498 5498 5498 5498 5497 5496 5494 5492 5490 5488 5487 5485 5484 5483 5483 5486 5490 5498 5506 5515 5525
5510 5507 5504 5502 5500 5498 5497 5497 5497 5497 5498 5498 5499 5499 5499 5500 5500 5500 5499 5499 5499 5497 5496 5494 5491 5488 5486 5484 5482 5480 5479 5479 5481 5486 5493 5501 5511 5521
5507 5505 5503 5501 5500 5499 5499 5499 5499 5500 5500 5501 5501 5502 5502 5502 5502 5502 5502 5501 5501 5499 5497 5495 5492 5489 5487 5485 5483 5481 5480 5480 5482 5487 5493 5501 5510 5519
5506 5504 5503 5502 5502 5502 5502 5502 5503 5503 5504 5504 5505 5505 5505 5505 5505 5505 5505 5505 5504 5502 5500 5498 5495 5492 5490 5489 5487 5485 5485 5485 5487 5491 5497 5504 5513 5521
5507 5506 5505 5504 5505 5505 5506 5506 5507 5507 5507 5508 5508 5508 5508 5508 5508 5509 5509 5509 5508 5507 5505 5502 5499 5497 5495 5494 5494 5493 5493 5494 5496 5500 5505 5511 5518 5526
5509 5508 5508 5508 5509 5509 5510 5510 5511 5511 5511 5511 5511 5511 5512 5512 5513 5513 5514 5514 5513 5512 5511 5509 5506 5504 5503 5502 5502 5503 5503 5505 5507 5510 5515 5521 5526 5533
5511 5511 5511 5512 5513 5513 5514 5514 5514 5514 5514 5514 5515 5515 5516 5517 5518 5519 5519 5519 5519 5519 5518 5516 5514 5513 5512 5512 5512 5512 5514 5516 5518 5522 5526 5532 5536 5541
5514 5514 5515 5516 5517 5518 5518 5518 5518 5518 5518 5518 5519 5520 5521 5522 5523 5524 5525 5525 5525 5525 5525 5524 5523 5522 5522 5523 5522 5522 5525 5527 5529 5532 5536 5541 5547 5552
5517 5517 5518 5520 5521 5522 5522 5522 5522 5522 5522 5522 5523 5525 5526 5527 5529 5530 5530 5531 5531 5532 5532 5532 5531 5530 5531 5532 5533 5533 5534 5537 5539 5542 5546 5550 5555 5561
5520 5521 5523 5524 5525 5526 5526 5526 5526 5526 5526 5527 5529 5530 5532 5533 5534 5535 5536 5537 5537 5538 5538 5539 5539 5539 5539 5540 5542 5543 5544 5546 5549 5552 5555 5559 5564 5569
5524 5525 5527 5528 5529 5530 5531 5531 5531 5531 5531 5532 5534 5535 5537 5539 5540 5541 5542 5543 5543 5544 5544 5545 5546 5546 5547 5548 5550 5551 5553 5556 5558 5561 5564 5568 5572 5577
5527 5529 5531 5532 5534 5535 5535 5535 5536 5536 5537 5538 5539 5541 5543 5544 5545 5547 5548 5548 5549 5550 5550 5551 5552 5553 5554 5555 5556 5558 5561 5563 5566 5569 5572 5575 5578 5582
Wind_Speed
57 56 55 56 57 58 60 62 64 64 65 64 64 63 63 62 62 61 60 58 57 55 54 54 54 53 52 52 52 51 52 53 54 54 55 56 59 61
55 55 56 57 59 61 62 64 65 66 66 62 60 57 56 56 56 55 54 52 51 50 49 49 49 49 49 49 49 49 49 49 50 51 52 53 56 58
56 57 58 60 61 62 63 63 63 63 61 56 53 50 49 49 48 48 46 45 44 43 43 43 43 44 44 44 44 44 45 46 47 48 50 51 54 56
57 58 59 61 61 61 60 58 56 54 51 47 46 44 43 43 42 41 40 38 38 37 36 37 37 38 40 40 41 41 42 43 44 46 48 50 52 54
58 59 60 59 58 56 53 49 47 45 43 41 39 38 37 37 36 35 34 33 31 31 31 31 32 33 35 36 37 38 39 41 42 44 46 48 50 52
59 58 57 55 52 48 44 42 40 38 38 36 33 32 31 30 29 27 26 25 24 24 24 25 27 28 30 32 34 36 37 38 40 42 44 47 49 51
55 54 51 48 44 41 38 37 35 34 32 29 26 25 24 23 21 19 18 18 18 18 20 22 24 25 27 29 31 33 35 37 39 41 43 45 47 49
51 48 45 42 39 36 34 32 31 28 25 22 20 18 17 15 14 13 12 12 13 14 16 18 20 22 25 27 29 31 34 36 38 41 43 44 46 48
45 42 39 37 34 31 29 27 24 20 17 15 13 12 10 9 8 7 7 7 8 10 12 14 16 19 22 24 27 30 33 35 37 40 42 43 44 45
39 36 33 30 27 25 22 19 15 12 9 8 7 5 3 3 3 3 4 4 5 7 8 11 13 16 18 21 24 27 30 33 36 38 40 42 43 44
34 30 26 24 21 17 14 11 7 5 3 2 0 1 2 3 3 3 3 2 3 4 6 8 10 12 14 15 18 20 23 26 30 34 37 40 41 43
28 24 20 16 13 10 7 4 1 1 2 4 5 5 5 4 4 3 2 2 1 2 4 5 6 7 8 9 11 13 16 19 24 29 32 36 39 41
21 16 12 9 6 4 2 3 4 6 7 7 6 6 6 5 4 4 4 3 2 2 3 3 2 2 1 2 2 3 6 11 17 24 29 32 35 37
13 9 6 3 3 5 6 7 8 8 8 8 7 7 7 6 6 6 6 6 6 6 6 7 7 7 8 8 7 6 7 11 16 21 26 30 33 35
7 4 4 5 7 10 11 10 10 10 10 9 8 8 8 8 8 9 9 10 10 10 10 12 13 15 15 14 14 14 15 17 20 23 26 30 32 34
4 5 7 9 12 12 12 11 11 10 10 9 9 9 9 10 11 12 12 12 13 14 15 17 19 20 20 20 19 20 20 21 24 26 28 31 33 34
6 8 11 12 13 13 12 11 11 10 9 9 10 11 12 14 14 15 15 16 16 17 18 19 22 25 25 25 24 23 23 23 25 26 27 30 32 34
9 11 12 13 14 13 12 12 11 10 10 10 12 14 15 16 16 17 17 18 18 18 19 21 23 25 26 28 28 27 26 25 26 26 27 27 30 32
11 13 14 15 14 13 13 12 11 11 11 13 15 17 18 18 17 18 18 18 18 18 19 21 23 25 26 26 28 29 28 27 27 27 27 27 28 30
12 14 15 15 15 14 13 12 12 12 14 16 18 19 19 19 19 18 18 18 18 18 18 19 21 24 25 24 25 27 27 27 27 27 27 26 25 26
13 15 15 15 15 14 13 13 13 14 15 18 19 20 20 20 19 19 19 18 18 17 17 17 18 20 23 24 23 23 24 25 26 26 25 25 25 25
14 15 15 15 14 13 13 13 14 15 17 18 20 20 20 20 19 19 18 18 17 17 17 17 16 17 19 21 21 20 20 21 21 22 22 23 23 22
15 15 15 14 14 13 13 14 14 16 18 19 20 20 19 19 18 17 17 16 16 16 16 16 15 14 15 16 17 17 17 18 18 18 18 19 20 20
Wind_Direction
292 291 290 289 288 287 287 286 285 285 285 285 284 283 281 279 278 276 274 272 269 267 263 259 256 254 252 251 249 248 246 245 244 243 240 237 234 232
292 292 292 291 290 289 289 288 288 287 287 286 285 283 281 279 277 275 273 271 269 265 261 257 253 251 249 248 247 246 244 243 241 239 238 235 231 229
294 294 294 293 293 292 292 291 290 289 288 287 285 283 281 279 277 275 273 271 268 263 258 254 250 248 246 245 245 244 241 240 238 235 234 232 230 227
296 296 296 296 295 294 293 292 291 290 288 287 285 283 281 278 277 275 273 270 266 261 255 251 247 245 244 243 242 241 239 238 236 234 232 231 229 226
298 299 299 298 297 296 295 293 291 291 290 289 287 284 281 279 276 274 272 269 264 259 254 249 244 242 241 241 240 239 239 237 234 232 231 230 228 227
301 301 300 299 298 296 295 293 293 292 292 290 287 284 281 278 276 273 269 266 261 256 250 245 242 241 241 241 240 239 237 236 234 232 230 229 228 227
303 302 301 300 298 296 295 295 294 294 293 290 288 284 281 278 275 270 265 261 256 251 246 243 242 243 243 242 242 239 238 236 234 233 231 230 228 227
304 303 302 300 298 297 296 295 295 294 292 290 288 285 282 277 273 266 260 254 250 246 245 245 246 246 246 245 243 241 239 238 236 234 232 230 228 227
305 304 303 301 299 298 297 297 296 294 291 289 288 285 280 276 268 256 250 245 241 242 245 248 251 252 251 249 246 244 242 239 236 233 230 227 226 224
307 306 305 303 301 300 299 298 299 297 291 289 289 286 272 252 234 224 217 221 234 243 251 258 260 257 254 254 252 249 246 241 237 233 228 224 222 220
310 309 308 306 305 304 302 301 301 294 285 285 254 124 127 139 149 158 176 204 225 250 268 272 269 265 261 259 257 251 246 241 234 227 222 218 216 215
312 311 309 308 308 310 311 309 296 159 127 120 117 116 116 124 134 137 141 153 223 278 289 289 281 276 268 267 263 252 243 235 225 217 213 211 210 209
316 315 315 318 324 338 33 99 114 117 117 114 112 112 112 116 120 117 119 116 82 47 23 8 354 355 338 327 288 235 225 208 201 198 197 197 198 198
323 327 336 6 54 83 101 110 114 113 111 108 108 108 107 107 104 102 107 96 76 67 62 61 67 74 81 77 81 103 126 150 166 174 179 182 184 186
344 12 60 84 95 102 105 108 108 106 105 104 102 103 103 101 101 104 103 93 81 75 72 73 79 88 89 85 85 94 110 125 140 151 160 167 171 173
46 78 93 102 108 106 105 105 104 104 102 100 98 100 101 104 107 106 103 96 89 84 82 83 84 88 91 92 92 96 106 118 129 140 149 155 160 163
88 99 106 110 111 108 106 103 102 100 98 96 97 102 107 110 110 108 105 101 95 90 89 86 87 90 92 95 97 101 107 115 123 132 142 150 155 158
104 107 111 113 112 108 104 101 96 93 93 96 104 109 112 113 112 110 107 102 96 93 93 91 89 90 92 95 98 101 105 113 120 126 135 143 150 154
113 113 116 116 113 108 102 96 91 90 94 103 110 113 114 114 115 114 109 103 98 94 95 95 94 92 92 95 99 102 105 110 117 123 129 137 146 152
119 119 120 118 115 107 100 94 90 93 101 110 115 116 116 114 114 114 110 106 102 99 98 97 98 98 98 96 98 102 105 110 116 123 128 133 140 147
125 125 123 120 114 106 101 95 92 98 106 114 119 119 117 115 113 111 108 106 104 101 99 97 98 102 104 103 102 103 106 111 117 123 127 132 137 140
129 128 126 121 115 108 102 96 95 101 110 116 120 122 120 117 114 110 107 104 102 101 99 98 99 103 108 110 110 110 110 112 117 122 129 135 139 144
132 131 128 123 117 110 104 98 97 104 111 116 120 122 121 118 114 111 107 104 101 100 98 97 98 102 110 115 117 118 120 122 125 130 136 142 146 149